VTK531 UHWW-UHHH

Flight info

Callsign VTK531
Flight time 1h 8m
Altitude 39000
Route DOLMA2P DOLMA B356 TD B355 ARDEL ARDEL6G
Aircraft B737/M-SDE2E3FGHIRWXY/LB1

Departure

Time 2026-04-25 06:52
Airport Vladivostok International Airport (UHWW)

Arrival

Time 2026-04-25 08:01
Airport Khabarovsk Novy Airport (UHHH)
Time Latitude Longitude Altitude Speed Heading
2026-04-25 06:36 43.39949 132.16629 62 ft 0 kts 151°
2026-04-25 06:46 43.39946 132.16631 67 ft 1 kts 152°
2026-04-25 06:46 43.39927 132.16645 63 ft 5 kts 151°
2026-04-25 06:46 43.39911 132.16692 64 ft 6 kts 80°
2026-04-25 06:47 43.39931 132.16751 62 ft 7 kts 60°
2026-04-25 06:47 43.39956 132.16813 67 ft 7 kts 61°
2026-04-25 06:47 43.39979 132.16872 63 ft 7 kts 61°
2026-04-25 06:47 43.40008 132.16942 65 ft 10 kts 59°
2026-04-25 06:48 43.40046 132.17036 61 ft 12 kts 61°
2026-04-25 06:48 43.40105 132.17095 64 ft 11 kts 346°
2026-04-25 06:48 43.40171 132.17050 62 ft 2 kts 331°
2026-04-25 06:48 43.40182 132.17041 65 ft 2 kts 331°
2026-04-25 06:49 43.40203 132.17025 67 ft 5 kts 331°
2026-04-25 06:49 43.40239 132.16998 65 ft 7 kts 331°
2026-04-25 06:49 43.40289 132.16960 64 ft 9 kts 332°
2026-04-25 06:49 43.40332 132.16929 67 ft 2 kts 332°
2026-04-25 06:50 43.40352 132.16914 62 ft 5 kts 331°
2026-04-25 06:50 43.40398 132.16879 65 ft 10 kts 331°
2026-04-25 06:50 43.40434 132.16831 64 ft 7 kts 278°
2026-04-25 06:50 43.40422 132.16769 60 ft 7 kts 243°
2026-04-25 06:51 43.40417 132.16757 61 ft 0 kts 241°
2026-04-25 06:51 43.40413 132.16748 60 ft 7 kts 241°
2026-04-25 06:52 43.40280 132.16421 67 ft 79 kts 240°
2026-04-25 06:52 43.39893 132.15470 70 ft 145 kts 235°
2026-04-25 06:52 43.39384 132.14181 622 ft 158 kts 237°
2026-04-25 06:52 43.38886 132.12841 1547 ft 156 kts 235°
2026-04-25 06:53 43.38349 132.11519 2303 ft 170 kts 233°
2026-04-25 06:53 43.37697 132.09972 2638 ft 200 kts 234°
2026-04-25 06:53 43.36994 132.08268 3340 ft 209 kts 235°
2026-04-25 06:53 43.36280 132.06521 4206 ft 211 kts 236°
2026-04-25 06:54 43.35560 132.04751 5112 ft 212 kts 237°
2026-04-25 06:54 43.34831 132.02977 6085 ft 216 kts 236°
2026-04-25 06:54 43.33704 132.01465 6643 ft 241 kts 214°
2026-04-25 06:54 43.32085 132.00648 7444 ft 259 kts 193°
2026-04-25 06:55 43.30233 132.00824 8325 ft 280 kts 169°
2026-04-25 06:55 43.28488 132.02189 9201 ft 302 kts 143°
2026-04-25 06:55 43.27232 132.04602 10030 ft 322 kts 115°
2026-04-25 06:55 43.26789 132.07683 10592 ft 344 kts 89°
2026-04-25 06:56 43.27253 132.11020 10819 ft 370 kts 71°
2026-04-25 06:56 43.28149 132.14417 11328 ft 385 kts 66°
2026-04-25 06:56 43.29130 132.17862 12198 ft 389 kts 67°
2026-04-25 06:56 43.30075 132.21382 13036 ft 397 kts 69°
2026-04-25 06:57 43.30986 132.24993 13935 ft 401 kts 69°
2026-04-25 06:57 43.31864 132.28634 14826 ft 403 kts 70°
2026-04-25 06:57 43.32972 132.32177 15597 ft 405 kts 53°
2026-04-25 06:57 43.34843 132.34998 16373 ft 398 kts 31°
2026-04-25 06:58 43.37216 132.36865 17241 ft 391 kts 17°
2026-04-25 06:58 43.39694 132.38338 17998 ft 397 kts 16°
2026-04-25 06:58 43.42259 132.39826 18678 ft 403 kts 15°
2026-04-25 06:58 43.44850 132.41342 19379 ft 406 kts 15°
2026-04-25 06:59 43.47456 132.42899 20120 ft 410 kts 16°
2026-04-25 06:59 43.50077 132.44486 20860 ft 413 kts 15°
2026-04-25 06:59 43.52715 132.46086 21577 ft 417 kts 16°
2026-04-25 06:59 43.55380 132.47716 22216 ft 421 kts 16°
2026-04-25 07:00 43.58075 132.49358 22874 ft 425 kts 17°
2026-04-25 07:00 43.60794 132.51036 23531 ft 431 kts 16°
2026-04-25 07:00 43.63542 132.52730 24138 ft 433 kts 15°
2026-04-25 07:00 43.66299 132.54428 24792 ft 435 kts 16°
2026-04-25 07:01 43.69067 132.56140 25313 ft 438 kts 15°
2026-04-25 07:01 43.71869 132.57856 25793 ft 443 kts 15°
2026-04-25 07:01 43.74698 132.59597 26315 ft 446 kts 16°
2026-04-25 07:01 43.77552 132.61355 26847 ft 449 kts 16°
2026-04-25 07:02 43.80375 132.63311 27323 ft 460 kts 23°
2026-04-25 07:02 43.83035 132.65894 27813 ft 475 kts 32°
2026-04-25 07:02 43.85549 132.68902 28273 ft 480 kts 34°
2026-04-25 07:02 43.88004 132.71995 28737 ft 484 kts 35°
2026-04-25 07:03 43.90521 132.75212 29197 ft 487 kts 36°
2026-04-25 07:03 43.93029 132.78398 29630 ft 490 kts 35°
2026-04-25 07:03 43.95529 132.81540 30043 ft 493 kts 35°
2026-04-25 07:03 43.98094 132.84733 30412 ft 495 kts 34°
2026-04-25 07:04 44.00669 132.87923 30768 ft 497 kts 34°
2026-04-25 07:04 44.03246 132.91115 31194 ft 497 kts 34°
2026-04-25 07:04 44.05822 132.94310 31707 ft 494 kts 34°
2026-04-25 07:04 44.08380 132.97489 32229 ft 492 kts 34°
2026-04-25 07:05 44.10925 133.00655 32680 ft 490 kts 34°
2026-04-25 07:05 44.13466 133.03819 33103 ft 490 kts 34°
2026-04-25 07:05 44.16003 133.06981 33523 ft 489 kts 34°
2026-04-25 07:05 44.18534 133.10140 33969 ft 487 kts 34°
2026-04-25 07:06 44.21080 133.13237 34312 ft 484 kts 32°
2026-04-25 07:06 44.23735 133.16121 34576 ft 482 kts 29°
2026-04-25 07:06 44.26443 133.18886 34815 ft 483 kts 28°
2026-04-25 07:06 44.29175 133.21616 35100 ft 482 kts 28°
2026-04-25 07:07 44.31910 133.24352 35411 ft 483 kts 28°
2026-04-25 07:07 44.34634 133.27103 35629 ft 485 kts 28°
2026-04-25 07:07 44.37329 133.29855 35893 ft 485 kts 28°
2026-04-25 07:07 44.40053 133.32661 36177 ft 486 kts 29°
2026-04-25 07:08 44.42766 133.35475 36434 ft 486 kts 29°
2026-04-25 07:08 44.45482 133.38295 36659 ft 486 kts 29°
2026-04-25 07:08 44.48201 133.41124 36918 ft 488 kts 29°
2026-04-25 07:08 44.50927 133.43963 37144 ft 489 kts 29°
2026-04-25 07:09 44.53672 133.46824 37396 ft 488 kts 29°
2026-04-25 07:09 44.56391 133.49662 37666 ft 488 kts 29°
2026-04-25 07:09 44.59120 133.52512 37901 ft 488 kts 29°
2026-04-25 07:09 44.61847 133.55363 38134 ft 489 kts 29°
2026-04-25 07:10 44.64569 133.58212 38387 ft 488 kts 29°
2026-04-25 07:10 44.67295 133.61069 38670 ft 488 kts 29°
2026-04-25 07:10 44.70011 133.63920 38860 ft 488 kts 29°
2026-04-25 07:10 44.72701 133.66744 38990 ft 489 kts 30°
2026-04-25 07:11 44.75436 133.69617 38981 ft 492 kts 30°
2026-04-25 07:11 44.80896 133.75373 38994 ft 488 kts 30°
2026-04-25 07:12 44.86311 133.81095 38996 ft 485 kts 30°
2026-04-25 07:12 44.94387 133.89576 39002 ft 480 kts 28°
2026-04-25 07:13 44.99834 133.94978 39015 ft 478 kts 27°
2026-04-25 07:13 45.04382 133.99451 39016 ft 480 kts 27°
2026-04-25 07:14 45.10794 134.05816 39017 ft 483 kts 27°
2026-04-25 07:14 45.16269 134.11296 39013 ft 486 kts 28°
2026-04-25 07:15 45.21807 134.16862 39021 ft 489 kts 28°
2026-04-25 07:15 45.26423 134.21511 39021 ft 490 kts 28°
2026-04-25 07:16 45.31986 134.27125 39020 ft 491 kts 28°
2026-04-25 07:16 45.37559 134.32762 39016 ft 491 kts 28°
2026-04-25 07:17 45.43126 134.38408 39010 ft 490 kts 28°
2026-04-25 07:17 45.48649 134.44022 39002 ft 489 kts 28°
2026-04-25 07:18 45.54177 134.49655 39041 ft 488 kts 28°
2026-04-25 07:18 45.59706 134.55301 39027 ft 487 kts 28°
2026-04-25 07:19 45.65213 134.60946 39036 ft 487 kts 28°
2026-04-25 07:19 45.70718 134.66595 39025 ft 485 kts 28°
2026-04-25 07:20 45.76173 134.72205 39023 ft 485 kts 28°
2026-04-25 07:20 45.81654 134.77858 39013 ft 485 kts 28°
2026-04-25 07:21 45.87169 134.83411 39008 ft 479 kts 21°
2026-04-25 07:21 45.90136 134.85465 39015 ft 467 kts 12°
2026-04-25 07:21 45.93164 134.86850 39028 ft 458 kts
2026-04-25 07:22 45.96264 134.87585 39016 ft 447 kts 356°
2026-04-25 07:22 45.99366 134.87982 39016 ft 447 kts 355°
2026-04-25 07:22 46.05581 134.88711 39013 ft 448 kts 355°
2026-04-25 07:23 46.11830 134.89486 39005 ft 451 kts 356°
2026-04-25 07:23 46.18074 134.90302 39020 ft 454 kts 356°
2026-04-25 07:24 46.24394 134.91144 39009 ft 456 kts 356°
2026-04-25 07:24 46.30726 134.91993 39002 ft 458 kts 356°
2026-04-25 07:25 46.37096 134.92847 39023 ft 459 kts 356°
2026-04-25 07:25 46.43469 134.93702 39029 ft 461 kts 356°
2026-04-25 07:26 46.49872 134.94563 39010 ft 461 kts 356°
2026-04-25 07:26 46.56231 134.95421 39007 ft 461 kts 356°
2026-04-25 07:27 46.62628 134.96285 38995 ft 461 kts 356°
2026-04-25 07:27 46.69007 134.97149 39016 ft 460 kts 356°
2026-04-25 07:28 46.75383 134.98014 39007 ft 459 kts 357°
2026-04-25 07:28 46.81708 134.99022 38982 ft 467 kts
2026-04-25 07:29 46.84784 135.00778 39022 ft 481 kts 19°
2026-04-25 07:29 46.87752 135.03036 38998 ft 483 kts 20°
2026-04-25 07:29 46.93674 135.07702 38995 ft 483 kts 21°
2026-04-25 07:30 46.99607 135.12326 38991 ft 482 kts 20°
2026-04-25 07:30 47.05514 135.16854 38996 ft 481 kts 20°
2026-04-25 07:31 47.11461 135.21397 38999 ft 482 kts 20°
2026-04-25 07:31 47.17415 135.25955 39002 ft 483 kts 20°
2026-04-25 07:32 47.23375 135.30532 38991 ft 483 kts 20°
2026-04-25 07:32 47.29344 135.35133 38984 ft 484 kts 20°
2026-04-25 07:33 47.35310 135.39744 38984 ft 484 kts 20°
2026-04-25 07:33 47.41233 135.44334 38983 ft 484 kts 20°
2026-04-25 07:34 47.47196 135.48965 38982 ft 484 kts 20°
2026-04-25 07:34 47.53164 135.53610 39002 ft 484 kts 20°
2026-04-25 07:35 47.59144 135.58278 38699 ft 490 kts 21°
2026-04-25 07:35 47.62159 135.60634 38071 ft 489 kts 20°
2026-04-25 07:35 47.65124 135.62959 37360 ft 487 kts 20°
2026-04-25 07:36 47.68125 135.65315 36690 ft 486 kts 20°
2026-04-25 07:36 47.71111 135.67661 36014 ft 485 kts 19°
2026-04-25 07:36 47.74098 135.70008 35262 ft 485 kts 19°
2026-04-25 07:36 47.77087 135.72358 34484 ft 487 kts 19°
2026-04-25 07:37 47.80091 135.74734 33579 ft 492 kts 19°
2026-04-25 07:37 47.83118 135.77185 32562 ft 496 kts 19°
2026-04-25 07:37 47.86144 135.79673 31645 ft 497 kts 18°
2026-04-25 07:37 47.89175 135.82179 30723 ft 498 kts 17°
2026-04-25 07:38 47.92212 135.84686 29679 ft 500 kts 16°
2026-04-25 07:38 47.95258 135.87199 28770 ft 496 kts 16°
2026-04-25 07:38 47.98251 135.89675 28018 ft 489 kts 16°
2026-04-25 07:38 48.01206 135.92112 27425 ft 482 kts 18°
2026-04-25 07:39 48.04091 135.94484 26646 ft 478 kts 19°
2026-04-25 07:39 48.06977 135.96910 25917 ft 476 kts 22°
2026-04-25 07:39 48.09683 135.99830 25259 ft 481 kts 32°
2026-04-25 07:39 48.12200 136.03113 24583 ft 478 kts 33°
2026-04-25 07:40 48.14683 136.06401 23870 ft 474 kts 33°
2026-04-25 07:40 48.17163 136.09620 23072 ft 470 kts 33°
2026-04-25 07:40 48.19733 136.12511 22288 ft 454 kts 23°
2026-04-25 07:40 48.22538 136.14432 21620 ft 434 kts 12°
2026-04-25 07:41 48.25398 136.15533 20685 ft 414 kts
2026-04-25 07:41 48.28216 136.15811 19998 ft 401 kts 354°
2026-04-25 07:41 48.30997 136.15860 19316 ft 397 kts 355°
2026-04-25 07:41 48.33747 136.15913 18655 ft 394 kts 356°
2026-04-25 07:42 48.36473 136.15983 17964 ft 390 kts 357°
2026-04-25 07:42 48.39147 136.16066 17247 ft 387 kts 357°
2026-04-25 07:42 48.41815 136.16158 16617 ft 382 kts 357°
2026-04-25 07:42 48.44438 136.16251 16336 ft 373 kts 358°
2026-04-25 07:43 48.47022 136.16344 16070 ft 372 kts 358°
2026-04-25 07:43 48.49637 136.16438 15826 ft 379 kts 358°
2026-04-25 07:43 48.52277 136.16532 15556 ft 380 kts 358°
2026-04-25 07:43 48.54904 136.16532 15280 ft 375 kts 353°
2026-04-25 07:44 48.57484 136.16004 14666 ft 371 kts 346°
2026-04-25 07:44 48.60002 136.15275 14045 ft 366 kts 345°
2026-04-25 07:44 48.62486 136.14534 13377 ft 362 kts 345°
2026-04-25 07:44 48.64949 136.13817 12720 ft 358 kts 345°
2026-04-25 07:45 48.67380 136.13133 12103 ft 353 kts 346°
2026-04-25 07:45 48.69779 136.12474 11500 ft 348 kts 346°
2026-04-25 07:45 48.72120 136.11836 10924 ft 344 kts 346°
2026-04-25 07:45 48.74480 136.11191 10565 ft 333 kts 345°
2026-04-25 07:46 48.76543 136.10076 10391 ft 309 kts 324°
2026-04-25 07:46 48.78142 136.08081 10278 ft 288 kts 308°
2026-04-25 07:46 48.79294 136.05708 10155 ft 272 kts 300°
2026-04-25 07:46 48.80291 136.03346 10035 ft 259 kts 298°
2026-04-25 07:47 48.81228 136.01083 9916 ft 248 kts 298°
2026-04-25 07:47 48.82144 135.98871 9591 ft 245 kts 298°
2026-04-25 07:47 48.83050 135.96698 9271 ft 243 kts 298°
2026-04-25 07:47 48.83949 135.94550 8950 ft 240 kts 298°
2026-04-25 07:48 48.84841 135.92425 8649 ft 237 kts 298°
2026-04-25 07:48 48.85727 135.90319 8327 ft 236 kts 298°
2026-04-25 07:48 48.86611 135.88224 7995 ft 235 kts 298°
2026-04-25 07:48 48.87490 135.86140 7684 ft 233 kts 299°
2026-04-25 07:49 48.88362 135.84070 7366 ft 232 kts 298°
2026-04-25 07:49 48.89223 135.82032 7234 ft 224 kts 298°
2026-04-25 07:49 48.90059 135.80047 7118 ft 224 kts 298°
2026-04-25 07:49 48.90845 135.78044 7012 ft 222 kts 288°
2026-04-25 07:50 48.90998 135.75821 6901 ft 207 kts 259°
2026-04-25 07:50 48.90524 135.73798 6814 ft 205 kts 239°
2026-04-25 07:50 48.89616 135.72090 6747 ft 211 kts 229°
2026-04-25 07:50 48.88583 135.70466 6641 ft 216 kts 228°
2026-04-25 07:51 48.87523 135.68832 6542 ft 218 kts 228°
2026-04-25 07:51 48.86462 135.67196 6433 ft 217 kts 228°
2026-04-25 07:51 48.85403 135.65558 6325 ft 216 kts 228°
2026-04-25 07:51 48.84354 135.63930 6215 ft 215 kts 228°
2026-04-25 07:52 48.83311 135.62308 6103 ft 214 kts 228°
2026-04-25 07:52 48.82274 135.60693 5999 ft 213 kts 228°
2026-04-25 07:52 48.81243 135.59084 5903 ft 212 kts 228°
2026-04-25 07:52 48.80216 135.57483 5804 ft 211 kts 228°
2026-04-25 07:53 48.79196 135.55892 5706 ft 210 kts 228°
2026-04-25 07:53 48.78191 135.54327 5613 ft 209 kts 227°
2026-04-25 07:53 48.77179 135.52751 5519 ft 208 kts 227°
2026-04-25 07:53 48.76167 135.51178 5385 ft 209 kts 227°
2026-04-25 07:54 48.75105 135.49656 5285 ft 208 kts 224°
2026-04-25 07:54 48.74007 135.48150 4988 ft 216 kts 224°
2026-04-25 07:54 48.72902 135.46615 4698 ft 215 kts 226°
2026-04-25 07:54 48.71824 135.45062 4405 ft 213 kts 225°
2026-04-25 07:55 48.70745 135.43552 4145 ft 210 kts 225°
2026-04-25 07:55 48.69672 135.42077 3915 ft 206 kts 225°
2026-04-25 07:55 48.68624 135.40648 3661 ft 199 kts 225°
2026-04-25 07:55 48.67617 135.39278 3418 ft 191 kts 225°
2026-04-25 07:56 48.66645 135.37956 3190 ft 184 kts 225°
2026-04-25 07:56 48.65710 135.36685 2980 ft 177 kts 225°
2026-04-25 07:56 48.64814 135.35465 2786 ft 171 kts 225°
2026-04-25 07:56 48.63949 135.34288 2581 ft 163 kts 226°
2026-04-25 07:57 48.63130 135.33175 2413 ft 154 kts 226°
2026-04-25 07:57 48.62337 135.32092 2226 ft 156 kts 226°
2026-04-25 07:57 48.61561 135.31037 2028 ft 144 kts 226°
2026-04-25 07:57 48.60843 135.30061 1870 ft 135 kts 227°
2026-04-25 07:58 48.60143 135.29105 1714 ft 137 kts 227°
2026-04-25 07:58 48.59435 135.28140 1588 ft 134 kts 227°
2026-04-25 07:58 48.58744 135.27199 1377 ft 131 kts 227°
2026-04-25 07:58 48.58074 135.26286 1217 ft 130 kts 227°
2026-04-25 07:59 48.57405 135.25375 1074 ft 131 kts 226°
2026-04-25 07:59 48.56723 135.24443 910 ft 135 kts 225°
2026-04-25 07:59 48.56021 135.23485 754 ft 136 kts 226°
2026-04-25 07:59 48.55330 135.22523 583 ft 136 kts 227°
2026-04-25 08:00 48.54630 135.21558 413 ft 137 kts 225°
2026-04-25 08:00 48.53920 135.20611 252 ft 133 kts 224°
2026-04-25 08:00 48.53311 135.19778 237 ft 101 kts 221°
2026-04-25 08:00 48.52891 135.19211 236 ft 71 kts 221°
2026-04-25 08:01 48.52550 135.18749 237 ft 61 kts 222°
2026-04-25 08:01 48.52313 135.18425 236 ft 43 kts 222°
2026-04-25 08:01 48.52150 135.18202 236 ft 18 kts 220°
2026-04-25 08:01 48.52115 135.18082 237 ft 12 kts 298°
2026-04-25 08:02 48.52170 135.17984 234 ft 12 kts 313°
2026-04-25 08:02 48.52225 135.17892 236 ft 12 kts 313°
2026-04-25 08:02 48.52261 135.17833 236 ft 11 kts 311°
2026-04-25 08:02 48.52331 135.17714 233 ft 11 kts 311°
2026-04-25 08:03 48.52364 135.17657 236 ft 11 kts 312°
2026-04-25 08:03 48.52414 135.17574 234 ft 11 kts 312°
2026-04-25 08:03 48.52463 135.17494 238 ft 10 kts 313°
2026-04-25 08:03 48.52525 135.17402 235 ft 7 kts 326°
2026-04-25 08:04 48.52556 135.17393 236 ft 7 kts 19°
2026-04-25 08:04 48.52589 135.17416 235 ft 5 kts 347°
2026-04-25 08:04 48.52615 135.17376 235 ft 5 kts 313°
2026-04-25 08:04 48.52632 135.17348 234 ft 0 kts 313°